Time,TemperatureF,DewpointF,PressureIn,WindDirection,WindDirectionDegrees,WindSpeedMPH,WindSpeedGustMPH,Humidity,HourlyPrecipIn,Conditions,Clouds,dailyrainin,SoftwareType,DateUTC
2013-07-28 00:02:00,54.1,48.0,29.93,SE,142,0.0,-999.0,80,-99.99,,,0.03,weatherlink.com 1.10,2013-07-28 05:02:00,
2013-07-28 00:17:00,54.2,48.0,29.93,SE,142,0.0,-999.0,80,-99.99,,,0.03,weatherlink.com 1.10,2013-07-28 05:17:00,
2013-07-28 00:32:00,54.3,49.0,29.93,SE,142,0.0,-999.0,81,-99.99,,,0.03,weatherlink.com 1.10,2013-07-28 05:32:00,
2013-07-28 00:47:00,54.5,48.0,29.93,SE,141,0.0,-999.0,80,-99.99,,,0.03,weatherlink.com 1.10,2013-07-28 05:47:00,
2013-07-28 01:02:00,54.6,49.0,29.93,SE,141,0.0,-999.0,81,-99.99,,,0.03,weatherlink.com 1.10,2013-07-28 06:02:00,
2013-07-28 01:17:00,54.6,49.0,29.92,SE,141,0.0,-999.0,81,-99.99,,,0.00,weatherlink.com 1.10,2013-07-28 06:17:00,
2013-07-28 01:32:00,54.5,48.0,29.92,SE,141,0.0,-999.0,80,-99.99,,,0.00,weatherlink.com 1.10,2013-07-28 06:32:00,
2013-07-28 01:47:00,54.3,48.0,29.92,SE,141,0.0,-999.0,80,-99.99,,,0.00,weatherlink.com 1.10,2013-07-28 06:47:00,
2013-07-28 02:02:00,54.1,48.0,29.92,SE,139,0.0,-999.0,80,-99.99,,,0.00,weatherlink.com 1.10,2013-07-28 07:02:00,
2013-07-28 02:17:00,54.0,48.0,29.92,SE,139,0.0,-999.0,80,-99.99,,,0.00,weatherlink.com 1.10,2013-07-28 07:17:00,
2013-07-28 02:32:00,53.9,48.0,29.92,SE,139,0.0,-999.0,81,-99.99,,,0.00,weatherlink.com 1.10,2013-07-28 07:32:00,
2013-07-28 02:47:00,53.7,48.0,29.92,SE,140,0.0,-999.0,81,-99.99,,,0.00,weatherlink.com 1.10,2013-07-28 07:47:00,
2013-07-28 03:02:00,53.5,48.0,29.92,SE,139,0.0,-999.0,82,-99.99,,,0.00,weatherlink.com 1.10,2013-07-28 08:02:00,
2013-07-28 03:17:00,53.4,48.0,29.92,SE,139,0.0,-999.0,82,-99.99,,,0.00,weatherlink.com 1.10,2013-07-28 08:17:00,
2013-07-28 03:47:00,53.5,49.0,29.91,SE,139,0.0,-999.0,83,-99.99,,,0.00,weatherlink.com 1.10,2013-07-28 08:47:00,
2013-07-28 04:02:00,53.4,48.0,29.91,SE,138,0.0,-999.0,82,-99.99,,,0.00,weatherlink.com 1.10,2013-07-28 09:02:00,
2013-07-28 04:17:00,53.3,48.0,29.92,SE,139,0.0,-999.0,83,-99.99,,,0.00,weatherlink.com 1.10,2013-07-28 09:17:00,
2013-07-28 04:32:00,53.3,48.0,29.92,SE,138,0.0,-999.0,83,-99.99,,,0.00,weatherlink.com 1.10,2013-07-28 09:32:00,
2013-07-28 04:47:00,53.4,48.0,29.93,SE,138,0.0,-999.0,83,-99.99,,,0.00,weatherlink.com 1.10,2013-07-28 09:47:00,
2013-07-28 05:02:00,53.3,49.0,29.93,SE,138,0.0,-999.0,84,-99.99,,,0.00,weatherlink.com 1.10,2013-07-28 10:02:00,
2013-07-28 05:17:00,53.2,49.0,29.93,SE,138,0.0,-999.0,84,-99.99,,,0.00,weatherlink.com 1.10,2013-07-28 10:17:00,
2013-07-28 05:32:00,53.2,49.0,29.93,SE,138,0.0,-999.0,84,-99.99,,,0.00,weatherlink.com 1.10,2013-07-28 10:32:00,
2013-07-28 05:47:00,53.1,48.0,29.93,SE,138,0.0,-999.0,84,-99.99,,,0.00,weatherlink.com 1.10,2013-07-28 10:47:00,
2013-07-28 06:02:00,53.1,48.0,29.93,SE,138,0.0,-999.0,84,-99.99,,,0.00,weatherlink.com 1.10,2013-07-28 11:02:00,
2013-07-28 06:17:00,53.0,48.0,29.94,SE,138,0.0,-999.0,84,-99.99,,,0.00,weatherlink.com 1.10,2013-07-28 11:17:00,
2013-07-28 06:32:00,53.0,48.0,29.94,SE,138,0.0,-999.0,84,-99.99,,,0.00,weatherlink.com 1.10,2013-07-28 11:32:00,
2013-07-28 06:48:00,53.0,48.0,29.94,SE,138,0.0,-999.0,84,-99.99,,,0.00,weatherlink.com 1.10,2013-07-28 11:48:00,
2013-07-28 07:03:00,53.0,48.0,29.94,SE,138,0.0,-999.0,84,-99.99,,,0.00,weatherlink.com 1.10,2013-07-28 12:03:00,
2013-07-28 07:18:00,53.1,48.0,29.94,SE,138,0.0,-999.0,84,-99.99,,,0.00,weatherlink.com 1.10,2013-07-28 12:18:00,
2013-07-28 07:33:00,53.3,49.0,29.94,ESE,115,0.0,-999.0,85,-99.99,,,0.00,weatherlink.com 1.10,2013-07-28 12:33:00,
2013-07-28 07:48:00,53.5,49.0,29.94,ESE,115,0.0,-999.0,85,-99.99,,,0.00,weatherlink.com 1.10,2013-07-28 12:48:00,
2013-07-28 08:03:00,53.9,49.0,29.94,ESE,114,0.0,-999.0,84,-99.99,,,0.00,weatherlink.com 1.10,2013-07-28 13:03:00,
2013-07-28 08:18:00,54.5,50.0,29.95,ESE,114,0.0,-999.0,84,-99.99,,,0.00,weatherlink.com 1.10,2013-07-28 13:18:00,
2013-07-28 08:33:00,55.2,50.0,29.94,ESE,113,0.0,-999.0,83,-99.99,,,0.00,weatherlink.com 1.10,2013-07-28 13:33:00,
2013-07-28 08:48:00,55.9,51.0,29.95,ESE,114,0.0,-999.0,82,-99.99,,,0.00,weatherlink.com 1.10,2013-07-28 13:48:00,
2013-07-28 09:03:00,57.2,51.0,29.95,ESE,113,0.0,-999.0,81,-99.99,,,0.00,weatherlink.com 1.10,2013-07-28 14:03:00,
2013-07-28 09:18:00,56.8,50.0,29.95,ESE,115,0.0,-999.0,78,-99.99,,,0.00,weatherlink.com 1.10,2013-07-28 14:18:00,
2013-07-28 09:33:00,57.5,51.0,29.94,ESE,114,0.0,-999.0,79,-99.99,,,0.00,weatherlink.com 1.10,2013-07-28 14:33:00,
2013-07-28 09:48:00,57.9,51.0,29.94,ESE,118,0.0,-999.0,78,-99.99,,,0.00,weatherlink.com 1.10,2013-07-28 14:48:00,
2013-07-28 10:03:00,58.7,52.0,29.94,ESE,123,0.0,-999.0,77,-99.99,,,0.00,weatherlink.com 1.10,2013-07-28 15:03:00,
2013-07-28 10:18:00,59.0,52.0,29.94,ESE,118,0.0,-999.0,77,-99.99,,,0.00,weatherlink.com 1.10,2013-07-28 15:18:00,
2013-07-28 10:33:00,59.7,52.0,29.94,ESE,119,0.0,-999.0,75,-99.99,,,0.00,weatherlink.com 1.10,2013-07-28 15:33:00,
2013-07-28 10:48:00,60.5,53.0,29.94,ESE,110,0.0,-999.0,75,-99.99,,,0.00,weatherlink.com 1.10,2013-07-28 15:48:00,
2013-07-28 11:03:00,61.5,53.0,29.94,ESE,105,0.0,-999.0,73,-99.99,,,0.00,weatherlink.com 1.10,2013-07-28 16:03:00,
2013-07-28 11:18:00,62.3,53.0,29.95,NE,34,0.0,-999.0,72,-99.99,,,0.00,weatherlink.com 1.10,2013-07-28 16:18:00,
2013-07-28 11:33:00,63.3,55.0,29.94,NE,36,0.0,-999.0,74,-99.99,,,0.00,weatherlink.com 1.10,2013-07-28 16:33:00,
2013-07-28 11:48:00,65.2,55.0,29.94,NNE,33,0.0,-999.0,70,-99.99,,,0.00,weatherlink.com 1.10,2013-07-28 16:48:00,
2013-07-28 12:03:00,65.1,55.0,29.94,NNE,32,0.0,-999.0,71,-99.99,,,0.00,weatherlink.com 1.10,2013-07-28 17:03:00,
2013-07-28 12:18:00,66.5,56.0,29.93,SW,234,0.0,-999.0,69,-99.99,,,0.00,weatherlink.com 1.10,2013-07-28 17:18:00,
2013-07-28 12:33:00,66.1,54.0,29.94,West,281,0.0,-999.0,66,-99.99,,,0.00,weatherlink.com 1.10,2013-07-28 17:33:00,
2013-07-28 12:48:00,66.8,55.0,29.93,WNW,283,0.0,-999.0,67,-99.99,,,0.00,weatherlink.com 1.10,2013-07-28 17:48:00,
2013-07-28 13:03:00,67.7,55.0,29.93,WNW,292,0.0,-999.0,65,-99.99,,,0.00,weatherlink.com 1.10,2013-07-28 18:03:00,
2013-07-28 13:18:00,69.7,58.0,29.93,NNW,347,0.0,-999.0,66,-99.99,,,0.00,weatherlink.com 1.10,2013-07-28 18:18:00,
2013-07-28 13:33:00,69.7,56.0,29.93,NNW,348,0.0,-999.0,62,-99.99,,,0.00,weatherlink.com 1.10,2013-07-28 18:33:00,
2013-07-28 13:48:00,71.8,57.0,29.93,NNE,26,0.0,-999.0,61,-99.99,,,0.00,weatherlink.com 1.10,2013-07-28 18:48:00,
2013-07-28 14:03:00,71.9,56.0,29.93,NW,318,0.0,-999.0,57,-99.99,,,0.00,weatherlink.com 1.10,2013-07-28 19:03:00,
2013-07-28 14:18:00,72.3,57.0,29.93,NE,34,0.0,-999.0,58,-99.99,,,0.00,weatherlink.com 1.10,2013-07-28 19:18:00,
2013-07-28 14:33:00,71.0,56.0,29.93,NNE,30,0.0,-999.0,59,-99.99,,,0.00,weatherlink.com 1.10,2013-07-28 19:33:00,
2013-07-28 14:48:00,72.0,57.0,29.93,NNE,26,0.0,-999.0,59,-99.99,,,0.00,weatherlink.com 1.10,2013-07-28 19:48:00,
2013-07-28 15:03:00,72.3,56.0,29.93,North,360,0.0,-999.0,57,-99.99,,,0.00,weatherlink.com 1.10,2013-07-28 20:03:00,
2013-07-28 15:18:00,73.4,59.0,29.93,NNE,24,0.0,-999.0,60,-99.99,,,0.00,weatherlink.com 1.10,2013-07-28 20:18:00,
2013-07-28 15:33:00,72.7,57.0,29.93,NNE,30,0.0,-999.0,59,-99.99,,,0.00,weatherlink.com 1.10,2013-07-28 20:33:00,
2013-07-28 15:48:00,72.0,57.0,29.92,NNE,33,0.0,-999.0,60,-99.99,,,0.00,weatherlink.com 1.10,2013-07-28 20:48:00,
2013-07-28 16:03:00,73.4,58.0,29.92,East,84,0.0,-999.0,59,-99.99,,,0.00,weatherlink.com 1.10,2013-07-28 21:03:00,
2013-07-28 16:18:00,72.2,56.0,29.93,ENE,63,0.0,-999.0,57,-99.99,,,0.00,weatherlink.com 1.10,2013-07-28 21:18:00,
2013-07-28 16:33:00,72.3,57.0,29.93,ENE,61,0.0,-999.0,59,-99.99,,,0.00,weatherlink.com 1.10,2013-07-28 21:33:00,
2013-07-28 16:49:00,72.4,57.0,29.92,NE,41,0.0,-999.0,58,-99.99,,,0.00,weatherlink.com 1.10,2013-07-28 21:49:00,
2013-07-28 17:04:00,71.9,56.0,29.93,ENE,71,0.0,-999.0,58,-99.99,,,0.00,weatherlink.com 1.10,2013-07-28 22:04:00,
2013-07-28 17:19:00,70.7,55.0,29.94,SE,138,0.0,-999.0,57,-99.99,,,0.00,weatherlink.com 1.10,2013-07-28 22:19:00,
2013-07-28 17:34:00,71.0,55.0,29.94,SE,140,0.0,-999.0,58,-99.99,,,0.00,weatherlink.com 1.10,2013-07-28 22:34:00,
2013-07-28 17:49:00,70.7,55.0,29.94,SE,143,0.0,-999.0,57,-99.99,,,0.00,weatherlink.com 1.10,2013-07-28 22:49:00,
2013-07-28 18:04:00,70.3,55.0,29.94,SE,141,0.0,-999.0,59,-99.99,,,0.00,weatherlink.com 1.10,2013-07-28 23:04:00,
2013-07-28 18:19:00,69.9,55.0,29.94,SE,141,0.0,-999.0,60,-99.99,,,0.00,weatherlink.com 1.10,2013-07-28 23:19:00,
2013-07-28 18:34:00,69.6,55.0,29.94,SE,142,0.0,-999.0,60,-99.99,,,0.00,weatherlink.com 1.10,2013-07-28 23:34:00,
2013-07-28 18:49:00,69.4,56.0,29.94,SE,140,0.0,-999.0,62,-99.99,,,0.00,weatherlink.com 1.10,2013-07-28 23:49:00,
2013-07-28 19:04:00,69.4,56.0,29.95,WSW,251,0.0,-999.0,63,-99.99,,,0.00,weatherlink.com 1.10,2013-07-29 00:04:00,
2013-07-28 19:19:00,68.9,56.0,29.95,WSW,249,0.0,-999.0,63,-99.99,,,0.00,weatherlink.com 1.10,2013-07-29 00:19:00,
2013-07-28 19:34:00,68.4,56.0,29.95,WSW,249,0.0,-999.0,65,-99.99,,,0.00,weatherlink.com 1.10,2013-07-29 00:34:00,
2013-07-28 19:49:00,67.9,56.0,29.96,WSW,248,0.0,-999.0,66,-99.99,,,0.00,weatherlink.com 1.10,2013-07-29 00:49:00,
2013-07-28 20:04:00,67.5,57.0,29.96,WSW,248,0.0,-999.0,68,-99.99,,,0.00,weatherlink.com 1.10,2013-07-29 01:04:00,
2013-07-28 20:19:00,66.7,56.0,29.96,WSW,248,0.0,-999.0,69,-99.99,,,0.00,weatherlink.com 1.10,2013-07-29 01:19:00,
2013-07-28 20:34:00,65.5,56.0,29.96,WSW,248,0.0,-999.0,71,-99.99,,,0.00,weatherlink.com 1.10,2013-07-29 01:34:00,
2013-07-28 20:49:00,64.2,55.0,29.97,WSW,248,0.0,-999.0,73,-99.99,,,0.00,weatherlink.com 1.10,2013-07-29 01:49:00,
2013-07-28 21:04:00,63.3,55.0,29.97,WSW,248,0.0,-999.0,75,-99.99,,,0.00,weatherlink.com 1.10,2013-07-29 02:04:00,
2013-07-28 21:19:00,62.5,55.0,29.98,WSW,248,0.0,-999.0,77,-99.99,,,0.00,weatherlink.com 1.10,2013-07-29 02:19:00,
2013-07-28 21:34:00,61.6,55.0,29.98,WSW,248,0.0,-999.0,79,-99.99,,,0.00,weatherlink.com 1.10,2013-07-29 02:34:00,
2013-07-28 21:49:00,60.7,55.0,29.99,WSW,248,0.0,-999.0,80,-99.99,,,0.00,weatherlink.com 1.10,2013-07-29 02:49:00,
2013-07-28 22:05:00,59.7,54.0,29.99,WSW,248,0.0,-999.0,82,-99.99,,,0.00,weatherlink.com 1.10,2013-07-29 03:05:00,
2013-07-28 22:19:00,59.0,54.0,29.99,WSW,248,0.0,-999.0,83,-99.99,,,0.00,weatherlink.com 1.10,2013-07-29 03:19:00,
2013-07-28 22:34:00,58.3,54.0,29.99,WSW,248,0.0,-999.0,85,-99.99,,,0.00,weatherlink.com 1.10,2013-07-29 03:34:00,
2013-07-28 22:49:00,57.7,54.0,30.00,WSW,248,0.0,-999.0,86,-99.99,,,0.00,weatherlink.com 1.10,2013-07-29 03:49:00,
2013-07-28 23:04:00,57.2,53.0,30.00,WSW,248,0.0,-999.0,87,-99.99,,,0.00,weatherlink.com 1.10,2013-07-29 04:04:00,
2013-07-28 23:19:00,56.8,53.0,30.00,WSW,248,0.0,-999.0,87,-99.99,,,0.00,weatherlink.com 1.10,2013-07-29 04:19:00,
2013-07-28 23:34:00,56.5,53.0,30.00,WSW,248,0.0,-999.0,88,-99.99,,,0.00,weatherlink.com 1.10,2013-07-29 04:34:00,
2013-07-28 23:49:00,56.2,53.0,30.01,WSW,248,0.0,-999.0,89,-99.99,,,0.00,weatherlink.com 1.10,2013-07-29 04:49:00,